Terminal Aerodrome Forecast
Issued by NWS

Home | Current Version | Previous Version | Text Only | Print | Product List | Glossary On
Versions: 1 2 3 4 5 6 7 8 9 10 11 12 13 14 15 16
000
FTAK31 PAJN 040530
TAFAPG
TAF
PAPG 040530Z 0406/0506 22005KT P6SM FEW250
     FM041100 VRB03KT P6SM OVC180
     FM041800 06005KT P6SM BKN100 OVC150
      AMD LTD TO CLD VIS AND WIND 0406/0415=

USA.gov is the U.S. government's official web portal to all federal, state and local government web resources and services.